GW4768 Weather Reports


Display with metric or nautical units.
time (UTC)temp
F
wind
direction
speed
MPH
gust
MPH
rain 1hr
in
rain 24hr
in
rain mn
in
humidity
%
barometer
mb
20260502220026 68 42 4.0 8.0 0.00 0.00 0.00 37 1017.2
20260502214519 68 330 5.0 9.0 0.00 0.00 0.00 34 1017.5
20260502213027 68 352 4.0 9.0 0.00 0.00 0.00 30 1017.6
20260502211526 67 347 6.0 10.0 0.00 0.00 0.00 38 1017.7
20260502210030 66 360 5.0 9.0 0.00 0.00 0.00 40 1017.8
20260502203010 65 352 5.0 9.0 0.00 0.00 0.00 38 1018.2
20260502201505 65 346 5.0 9.0 0.00 0.00 0.00 39 1018.3
20260502200024 65 352 8.0 11.0 0.00 0.00 0.00 42 1018.5
20260502194525 65 17 6.0 10.0 0.00 0.00 0.00 38 1018.6
20260502193026 65 342 4.0 9.0 0.00 0.00 0.00 37 1018.6
20260502190016 65 315 2.0 5.0 0.00 0.00 0.00 31 1018.8
20260502184536 64 307 3.0 5.0 0.00 0.00 0.00 35 1018.9
20260502183027 62 13 3.0 5.0 0.00 0.00 0.00 37 1019.2
20260502181518 61 350 4.0 5.0 0.00 0.00 0.00 40 1019.4
20260502163016 56 71 4.0 6.0 0.00 0.00 0.00 48 1019.8
20260502161527 56 36 3.0 6.0 0.00 0.00 0.00 46 1020.0
20260502151525 51 223 4.0 5.0 0.00 0.00 0.00 53 1020.4
20260502123028 41 224 2.0 2.0 0.00 0.00 0.00 58 1020.3
20260502121527 42 217 2.0 4.0 0.00 0.00 0.00 58 1020.2
20260502114508 44 217 2.0 5.0 0.00 0.00 0.00 54 1020.1
20260502113006 44 166 0.0 5.0 0.00 0.00 0.00 54 1020.3
20260502104510 43 214 3.0 5.0 0.00 0.00 0.00 55 1020.1
20260502103008 43 185 2.0 4.0 0.00 0.00 0.00 55 1020.0
20260502101509 44 202 1.0 5.0 0.00 0.00 0.00 54 1019.8
20260502091511 46 159 3.0 7.0 0.00 0.00 0.00 49 1019.6
20260502071513 50 261 0.0 6.0 0.00 0.00 0.00 45 1019.6
20260502070012 50 234 2.0 10.0 0.00 0.00 0.00 44 1019.4
20260502064511 50 148 8.0 10.0 0.00 0.00 0.00 44 1019.5
20260502061519 51 196 2.0 9.0 0.00 0.00 0.00 43 1019.3
20260502060019 52 116 7.0 10.0 0.00 0.00 0.00 42 1019.1
20260502054516 53 130 7.0 11.0 0.00 0.00 0.00 40 1019.1
20260502053018 53 148 8.0 12.0 0.00 0.00 0.00 40 1018.9
20260502051519 54 146 8.0 12.0 0.00 0.00 0.00 39 1018.9
20260502050012 54 146 7.0 10.0 0.00 0.00 0.00 40 1018.9
20260502044512 54 163 7.0 11.0 0.00 0.00 0.00 40 1018.9
20260502043020 54 126 8.0 14.0 0.00 0.00 0.00 37 1018.9
20260502041524 54 128 8.0 11.0 0.00 0.00 0.00 38 1018.9
20260502040022 55 141 7.0 11.0 0.00 0.00 0.00 37 1018.8
20260502034520 56 129 6.0 10.0 0.00 0.00 0.00 37 1018.6
20260502033025 57 157 4.0 8.0 0.00 0.00 0.00 36 1018.5
20260502031522 57 194 1.0 5.0 0.00 0.00 0.00 37 1018.4
20260502030018 60 140 5.0 8.0 0.00 0.00 0.00 33 1018.1
20260502024516 62 130 4.0 5.0 0.00 0.00 0.00 29 1018.0
20260502021511 65 65 2.0 3.0 0.00 0.00 0.00 29 1018.0
20260502020020 66 51 2.0 4.0 0.00 0.00 0.00 27 1017.9
20260502014525 66 35 3.0 5.0 0.00 0.00 0.00 26 1017.9
20260502013017 67 34 4.0 7.0 0.00 0.00 0.00 27 1018.0
20260502011515 68 43 4.0 7.0 0.00 0.00 0.00 27 1018.1
20260502004520 69 18 4.0 6.0 0.00 0.00 0.00 26 1018.2
20260502003020 69 24 3.0 5.0 0.00 0.00 0.00 22 1018.3
20260502000022 69 62 2.0 6.0 0.00 0.00 0.00 21 1018.4
20260501234510 69 22 3.0 5.0 0.00 0.00 0.00 23 1018.4
20260501233008 70 92 2.0 5.0 0.00 0.00 0.00 25 1018.4
20260501230024 69 300 2.0 7.0 0.00 0.00 0.00 21 1018.6
20260501224524 69 352 5.0 8.0 0.00 0.00 0.00 24 1018.7
20260501223030 68 46 4.0 8.0 0.00 0.00 0.00 25 1018.9
20260501221516 68 82 4.0 9.0 0.00 0.00 0.00 23 1019.2